Overview Statistics Trail Chart Weather Telemetry Raw packets
 

This is the latest recevied weather packets stored in our database for station/object K0QED. If no packets are shown the sender has not sent any weather packets the latest 10 day(s).

<< 1 2 3 4 5 >>
Time Temp. Humidity Pressure Rain* Wind** Luminosity Snow
1788629892 27.22° C 33% 1026.4 hPa 0 mm - 594 W/m² -
1788629588 27.78° C 32% 1026.5 hPa 0 mm - 638 W/m² -
1788629289 27.78° C 33% 1026.5 hPa 0 mm - 643 W/m² -
1788628986 27.78° C 33% 1026.6 hPa 0 mm - 636 W/m² -
1788628683 27.22° C 33% 1026.2 hPa 0 mm - 657 W/m² -
1788628380 26.67° C 33% 1026.5 hPa 0 mm - 675 W/m² -
1788628075 26.67° C 34% 1026.6 hPa 0 mm - 712 W/m² -
1788627802 26.67° C 34% 1026.7 hPa 0 mm - 704 W/m² -
1788627470 26.67° C 34% 1026.4 hPa 0 mm - 673 W/m² -
1788627166 26.11° C 34% 1026.5 hPa 0 mm - 715 W/m² -
1788626860 26.11° C 34% 1026.5 hPa 0 mm - 746 W/m² -
1788626555 26.11° C 33% 1026.2 hPa 0 mm - 784 W/m² -
1788626251 26.67° C 34% 1026.2 hPa 0 mm - 735 W/m² -
1788625972 26.11° C 35% 1026.5 hPa 0 mm - 691 W/m² -
1788625643 26.11° C 36% 1026.2 hPa 0 mm - 687 W/m² -
1788625342 26.11° C 37% 1026 hPa 0 mm - 687 W/m² -
1788625037 26.11° C 36% 1026.1 hPa 0 mm - 674 W/m² -
1788624735 25.56° C 36% 1026 hPa 0 mm - 659 W/m² -
1788624434 25° C 36% 1026.2 hPa 0 mm - 574 W/m² -
1788624134 25.56° C 35% 1026.2 hPa 0 mm - 197 W/m² -
1788623828 25° C 37% 1026 hPa 0 mm - 181 W/m² -
1788623527 25° C 35% 1026.1 hPa 0 mm - 72 W/m² -
1788623221 25° C 36% 1025.9 hPa 0 mm - 121 W/m² -
1788622917 25° C 36% 1026 hPa 0 mm - 53 W/m² -
1788622613 25° C 36% 1026.1 hPa 0 mm - 55 W/m² -

* Rain latest hour (hover to see other rain measurements)
** Current wind speed in m/s (hover to see current wind gust speed)